TimeAKDT,TemperatureF,Dew PointF,Humidity,Sea Level PressureIn,VisibilityMPH,Wind Direction,Wind SpeedMPH,Gust SpeedMPH,PrecipitationIn,Events,Conditions,WindDirDegrees,DateUTC
12:53 AM,34.0,12.0,40,30.38,10.0,NNE,11.5,19.6,N/A,,Overcast,20,2012-10-22 08:53:00
1:53 AM,33.1,12.0,42,30.37,10.0,NNE,15.0,-,N/A,,Overcast,30,2012-10-22 09:53:00
2:53 AM,33.1,12.0,42,30.38,10.0,NNE,12.7,-,N/A,,Overcast,20,2012-10-22 10:53:00
3:53 AM,32.0,12.0,44,30.36,10.0,NNE,16.1,23.0,N/A,,Mostly Cloudy,30,2012-10-22 11:53:00
4:53 AM,32.0,10.9,42,30.35,10.0,NE,24.2,32.2,N/A,,Clear,40,2012-10-22 12:53:00
5:53 AM,32.0,10.9,42,30.34,10.0,NNE,18.4,27.6,N/A,,Overcast,30,2012-10-22 13:53:00
6:53 AM,32.0,12.0,44,30.34,10.0,NNE,18.4,25.3,N/A,,Overcast,30,2012-10-22 14:53:00
7:53 AM,32.0,12.0,44,30.33,10.0,NNE,19.6,26.5,N/A,,Overcast,30,2012-10-22 15:53:00
8:53 AM,32.0,12.0,44,30.32,10.0,NE,20.7,-,N/A,,Overcast,40,2012-10-22 16:53:00
9:53 AM,32.0,12.0,44,30.32,10.0,NE,23.0,29.9,N/A,,Overcast,40,2012-10-22 17:53:00
10:53 AM,33.1,12.0,42,30.32,10.0,NNE,18.4,26.5,N/A,,Partly Cloudy,30,2012-10-22 18:53:00
11:53 AM,35.1,12.0,39,30.30,10.0,NNE,21.9,29.9,N/A,,Mostly Cloudy,30,2012-10-22 19:53:00
12:53 PM,37.0,12.0,36,30.29,10.0,NE,16.1,-,N/A,,Mostly Cloudy,40,2012-10-22 20:53:00
1:53 PM,39.0,12.9,34,30.27,10.0,NE,16.1,-,N/A,,Clear,40,2012-10-22 21:53:00
2:53 PM,39.0,12.9,34,30.26,10.0,NNE,12.7,24.2,N/A,,Clear,30,2012-10-22 22:53:00
3:53 PM,37.9,12.9,36,30.25,10.0,NNE,16.1,25.3,N/A,,Clear,30,2012-10-22 23:53:00
4:53 PM,36.0,14.0,41,30.26,10.0,NNE,9.2,-,N/A,,Clear,30,2012-10-23 00:53:00
5:53 PM,36.0,14.0,41,30.25,10.0,North,6.9,-,N/A,,Overcast,10,2012-10-23 01:53:00
6:53 PM,37.0,14.0,39,30.25,10.0,North,6.9,-,N/A,,Overcast,10,2012-10-23 02:53:00
8:53 PM,37.0,14.0,39,30.23,10.0,NNE,10.4,-,N/A,,Mostly Cloudy,20,2012-10-23 04:53:00
9:53 PM,37.0,15.1,41,30.22,10.0,NNE,12.7,17.3,N/A,,Overcast,30,2012-10-23 05:53:00
10:53 PM,37.0,15.1,41,30.22,10.0,NNE,9.2,-,N/A,,Overcast,20,2012-10-23 06:53:00
11:53 PM,37.0,15.1,41,30.22,10.0,NNE,8.1,-,N/A,,Overcast,20,2012-10-23 07:53:00